Regional Weather Roundup
Issued by NWS Upton, NY

Current Version | Previous Version | Graphics & Text | Print | Product List | Glossary Off
Versions: 1 2 3 4 5 6 7 8 9 10 11 12 13 14 15 16 17 18 19 20 21 22 23 24 25 26 27 28

000
ASUS41 KOKX 252305
RWROKX

REGIONAL WEATHER ROUNDUP
NATIONAL WEATHER SERVICE NEW YORK NY
700 PM EDT MON JUL 25 2016

NOTE: "FAIR" INDICATES FEW OR NO CLOUDS BELOW 12,000 FEET WITH NO
SIGNIFICANT WEATHER AND/OR OBSTRUCTIONS TO VISIBILITY.

NYZ071-072-176-178-NJZ106-104-260000-
NEW YORK CITY METRO AREA

CITY           SKY/WX    TMP DP  RH WIND       PRES   REMARKS
Central Park   CLOUDY    76  74  93 CALM      29.92F FOG
LaGuardia APRT LGT RAIN  78  74  87 S12       29.88R
Kennedy INTL   TSTM      75  72  90 SE6       29.90F FOG
Newark/Liberty LGT RAIN  75  73  93 N3        29.90S
Bronx Bot Gard   N/A     75  73  94 W3        29.91S
Wall St Helipt CLOUDY    75  73  94 CALM      29.89F
Teterboro      CLOUDY    77  73  87 W7        29.89R
$$

NYZ177-179-078>081-260000-
LONG ISLAND NEW YORK

CITY           SKY/WX    TMP DP  RH WIND       PRES   REMARKS
Farmingdale    LGT RAIN  75  72  90 W16G29    29.89S
MacArthur/ISP  TSTM      77  74  90 W16G25    29.88R FOG
Shirley        LGT RAIN  79  75  87 SW12      29.89R FOG
Riverhead      NOT AVBL
Westhampton    CLOUDY    76  72  87 SW12      29.88R
Southhampton     N/A     73  72  94 SW8       29.83R
Bridgehampton    N/A     75  72  88 S3        29.84R
East Hampton   PTSUNNY   75  72  91 SW10G16   29.84R
Montauk          N/A     75  72  90 S6        29.85R
$$

NYZ052-065-067-260000-
HUDSON VALLEY

CITY           SKY/WX    TMP DP  RH WIND       PRES   REMARKS
White Plains   TSTM      76  74  93 W13       29.91R FOG
Newburgh       LGT RAIN  75  73  94 SW9       29.90F
Montgomery     HVY RAIN  74  72  93 S10       29.86F
Poughkeepsie   LGT RAIN  78  74  87 SE8       29.84F
Albany         CLOUDY    80  73  79 S7        29.78F
$$

NJZ001-105-106-008-010-013-015-019>022-104-260000-
NEW JERSEY

CITY           SKY/WX    TMP DP  RH WIND       PRES   REMARKS
Newark/Liberty LGT RAIN  75  73  93 N3        29.90S
Teterboro      CLOUDY    77  73  87 W7        29.89R
Caldwell       CLOUDY    75  71  87 N6        29.91R
Morristown     NOT AVBL
Somerville     TSTM      75  73  93 VRB6      29.92R FOG
Linden         FAIR      74  72  93 CALM      29.91S
Sussex         LGT RAIN  71  71 100 W3        29.91F
Abdover          N/A     72  69  90 CALM      29.92F
Trenton        TSTM      74  73  97 NW9G23    29.93R VSB 1
Millville      SUNNY     91  75  59 SW6       29.84F HX 101
Atlantic City  MOSUNNY   91  77  63 SW7       29.84F HX 104
Wrightstown    TSTM      77  72  83 N9        29.84S
Toms River     CLOUDY    79  73  82 N15G26    29.85R THUNDER
Belmar         TSTM      75  73  94 NE9       29.89R
$$

PAZ047>061-062-071-260000-
EASTERN PENNSYLVANIA

CITY           SKY/WX    TMP DP  RH WIND       PRES   REMARKS
Philadelphia   PTSUNNY   94  74  52 SW15G26   29.83S THUNDER HX 104
Allentown      LGT RAIN  74  69  85 SE5       29.90F
Scranton       LGT RAIN  73  72  96 VRB3      29.89F FOG
$$

CTZ002-004>006-009-010-012-RIZ004-006-007-MAZ004-011-015-260000-
SOUTHERN NEW ENGLAND
 IN CT

CITY           SKY/WX    TMP DP  RH WIND       PRES   REMARKS
Bradley INTL   CLOUDY    85  67  54 W12       29.80R
Hartford       CLOUDY    86  71  60 SW6       29.82R HX  91
Danbury        TSTM      75  71  87 VRB6      29.92R FOG
Wtrbury/Oxford PTSUNNY   75  70  83 W6        29.90R
Bridgeport     LGT RAIN  77  73  87 SW13      29.87R
Meriden        CLOUDY    79  72  79 SW5       29.85R
New Haven      CLOUDY    77  69  76 SW7       29.86R
Chester        FAIR      77  72  83 SW5       29.85R
Groton         CLOUDY    76  72  87 S12       29.83R
Wilimantic     NOT AVBL

 IN RI

CITY           SKY/WX    TMP DP  RH WIND       PRES   REMARKS
Providence     CLOUDY    79  70  74 S10       29.82R
Block Island   CLOUDY    75  71  87 S13         N/A
Westerly       CLOUDY    76  69  79 SW9       29.84R
 IN MA

CITY           SKY/WX    TMP DP  RH WIND       PRES   REMARKS
Boston         CLOUDY    83  65  54 S18       29.78R
Worchester     CLOUDY    82  66  58 SW12      29.84R
Westfield      CLOUDY    86  67  52 W12       29.80R
Provincetown   CLOUDY    76  70  82 S13       29.81F
Nantucket      PTSUNNY   72  70  93 S14       29.85F
$$

ANZ330-335-338-340-345-350-353-355-260000-
COASTAL MARINE OBSERVATIONS


STATION/POSITION TIME  SKY/WX   TEMP    WIND        PRES    VSBY  WAVE
                                AIR SEA DIR/SP/G                  HT/PER
                 (UTC)          (F)     (DEG/KT/KT) (MB)    (MI)  (FT/S)
NY HARB ENTRANCE 2150            77 73  180/ 12/ 12 1009.9          3/ 4
20S FIRE ISLAND  2150            77 75  180/  8/ 10 1010.4          3/ 5
GREAT SOUTH BAY  2215            78 81  240/ 14/ 16   N/A
23 SSW MONTAUK P 2150            75 75  210/  8/ 10 1011.1          3/ 5
15 E BARNEGAT LI 2222               75                N/A           2/ 4
HUDSON CANYON    2150            78 78              1011.3          2/ 4
KINGS POINT      2200               71                N/A
EXECUTION ROCKS  2200            75     240/  6/ 12   N/A
CENTRAL LI SOUND 2200            77 75  210/ 10/ 12   N/A           1/ 3
EASTERN LI SOUND 2200            72 68  190/  6/ 10   N/A
ROBBINS REEF     2206            72     290/ 17/ 21   N/A
$$


>>>>>>>>>>>>>>>>>>>>>>>>>>>> KEY <<<<<<<<<<<<<<<<<<<<<<<<<<<
>                                                          <
>     SKY/WX - Sky Condition/Present Weather               <
>     TMP    - Temperature in Fahrenheit                   <
>     DP     - Dew Point in Fahrenheit                     <
>     RH     - Relative Humidity in Percent                <
>     WIND   - Direction (from) and Speed in MPH           <
>     PRES   - Mean Sea Level Pressure (inches of Hg)      <
>     WCI    - Wind Chill Index                            <
>     VSB    - VISIBILITY IN MILES                         <
>     HX     - HEAT INDEX                                  <
>     TC     - TEMPERATURE IN CELSIUS                      <
>     VRB    - VARIABLE WIND DIRECTION                     <
>                                                          <
>>>>>>>>>>>>>>>>>>>>>>>>>>>> KEY <<<<<<<<<<<<<<<<<<<<<<<<<<<




USA.gov is the U.S. government's official web portal to all federal, state and local government web resources and services.